Location: Arbon
(43.0005°N, 0.7472°E)
Time: 20:38:25
(UTC+00:00)

Altair - Pass Details

Date: 02 December 2020
Orbit: 1501 x 1682 km, 47.2° (Epoch: 26 January)

Event Time Altitude Azimuth Distance (km) Brightness Sun altitude
Rises 18:54:44 0° 224° (SW) 4,770 10.8 -27.0°
Reaches altitude 10° 18:57:54 10° 221° (SW) 3,763 10.1 -27.6°
Maximum altitude 19:07:09 60° 144° (SE) 1,725 7.5 -29.3°
Enters shadow 19:08:29 55° 112° (ESE) 1,788 7.4 -29.6°
Drops below altitude 10° 19:16:08 10° 68° (ENE) 3,667 - -31.0°
Sets 19:19:11 0° 65° (ENE) 4,642 - -31.5°
